Location: Janeiro
(34.9957°N, 76.7652°W)
Time: 05:37:10
(UTC+00:00)

OAO 3 Rocket - Pass Details

Date: 14 December 2019
Orbit: 629 x 683 km, 35.0° (Epoch: 18 January)

Event Time Altitude Azimuth Distance (km) Brightness Sun altitude
Rises 22:26:38 0° 277° (W) 2,909 7.7 -6.4°
Reaches altitude 10° 22:28:58 10° 276° (W) 2,005 6.8 -6.8°
Maximum altitude 22:33:38 79° 190° (S) 649 3.2 -7.7°
Drops below altitude 10° 22:38:21 10° 104° (ESE) 2,029 5.2 -8.6°
Enters shadow 22:39:22 - 104° (ESE) 2,424 5.6 -8.8°
